This is the latest recevied weather packets stored in our database for station/object KC3QLX. If no packets are shown the sender has not sent any weather packets the latest 10 day(s).
| Time | Temp. | Humidity | Pressure | Rain* | Wind** | Luminosity | Snow |
|---|---|---|---|---|---|---|---|
| 1777801129 | 5° C | 71% | 1012.4 hPa | 0 mm | - | 0 W/m² | - |
| 1777800825 | 4.44° C | 75% | 1012.2 hPa | 0 mm | - | 0 W/m² | - |
| 1777800520 | 5° C | 72% | 1012.4 hPa | 0 mm | - | 0 W/m² | - |
| 1777800217 | 5° C | 72% | 1012.2 hPa | 0 mm | - | 0 W/m² | - |
| 1777799912 | 5° C | 71% | 1012.3 hPa | 0 mm | - | 0 W/m² | - |
| 1777799609 | 5° C | 73% | 1012.2 hPa | 0 mm | - | 0 W/m² | - |
| 1777799306 | 5° C | 70% | 1012.4 hPa | 0 mm | - | 0 W/m² | - |
| 1777799001 | 5° C | 70% | 1012.2 hPa | 0 mm | - | 0 W/m² | - |
| 1777798697 | 5° C | 71% | 1012.5 hPa | 0 mm | - | 0 W/m² | - |
| 1777798394 | 5° C | 70% | 1012.2 hPa | 0 mm | - | 0 W/m² | - |
| 1777798091 | 5° C | 70% | 1012.4 hPa | 0 mm | - | 0 W/m² | - |
| 1777797789 | 5° C | 70% | 1012.3 hPa | 0 mm | - | 0 W/m² | - |
| 1777797486 | 5.56° C | 71% | 1012 hPa | 0 mm | - | 0 W/m² | - |
| 1777797183 | 5.56° C | 69% | 1012.1 hPa | 0 mm | - | 0 W/m² | - |
| 1777796880 | 5.56° C | 73% | 1012.2 hPa | 0 mm | - | 0 W/m² | - |
| 1777796577 | 5.56° C | 72% | 1012.1 hPa | 0 mm | - | 0 W/m² | - |
| 1777796272 | 5.56° C | 71% | 1012.2 hPa | 0 mm | - | 0 W/m² | - |
| 1777795969 | 5.56° C | 70% | 1011.9 hPa | 0 mm | - | 0 W/m² | - |
| 1777795664 | 5.56° C | 72% | 1011.9 hPa | 0 mm | - | 0 W/m² | - |
| 1777795362 | 5.56° C | 69% | 1012 hPa | 0 mm | - | 0 W/m² | - |
| 1777795058 | 5.56° C | 70% | 1012 hPa | 0 mm | - | 0 W/m² | - |
| 1777794754 | 5.56° C | 71% | 1011.9 hPa | 0 mm | - | 0 W/m² | - |
| 1777794451 | 5.56° C | 71% | 1011.9 hPa | 0 mm | - | 0 W/m² | - |
| 1777794146 | 5.56° C | 70% | 1011.8 hPa | 0 mm | - | 0 W/m² | - |
| 1777793843 | 6.11° C | 71% | 1011.9 hPa | 0 mm | - | 0 W/m² | - |
* Rain latest hour (hover to see other rain measurements)
** Current wind speed in m/s (hover to see current wind gust speed)